Change the Weather History Date:

Thursday, February 9, 2012

  Actual Average Record
Temperature  
Mean Temperature 27 °F 26 °F  
Max Temperature 34 °F 33 °F 60 °F (1925)
Min Temperature 20 °F 19 °F -20 °F (1899)
Degree Days  
Heating Degree Days 38 39  
Month to date heating degree days 291 356  
Since 1 July heating degree days 3428 4004  
Cooling Degree Days 0 0  
Month to date cooling degree days 0 0  
Year to date cooling degree days 0 0  
Moisture  
Dew Point 18 °F    
Average Humidity 68    
Maximum Humidity 84    
Minimum Humidity 51    
Precipitation  
Precipitation 0.00 in 0.06 in 1.20 in (2001)
Month to date precipitation 0.06 0.56  
Year to date precipitation 3.03 2.85  
Snow  
Snow 0.00 in 0.60 in 6.00 in (1909)
Month to date snowfall 0.6 5.6  
Since 1 July snowfall 41.3 48.7  
Snow Depth 0.00 in    
Sea Level Pressure  
Sea Level Pressure 30.25 in    
Wind  
Wind Speed 11 mph (SW)    
Max Wind Speed 20 mph    
Max Gust Speed 24 mph    
Visibility 10 miles    
Events      
T = Trace of Precipitation, MM = Missing Value Source: NWS Daily Summary

Daily Weather History Graph

Daily Weather History Graph

Search for Another Location

Airport or City:

Trip Planner

Search our weather history database for the weather conditions in past years. The results will help you decide how hot, cold, wet, or windy it might be!

Date:

Astronomy

Feb. 09, 2012 Rise Set
Actual Time 7:49 AM EST 6:10 PM EST
Civil Twilight 7:20 AM EST 6:39 PM EST
Nautical Twilight 6:47 AM EST 7:12 PM EST
Astronomical Twilight 6:14 AM EST 7:44 PM EST
Moon 8:41 PM EST (2/9) 8:22 AM EST (2/9)
Length of Visible Light 11h 19m
Length of Day
10h 21m
Waning Gibbous, 96% of the Moon is Illuminated
Feb 9
Waning Gibbous
Feb 14
Last Quarter
Feb 21
New
Feb 29
First Quarter
Mar 8
Full

Hourly Weather History & Observations

Time (EST) Temp. Windchill Dew Point Humidity Pressure Visibility Wind Dir Wind Speed Gust Speed Precip Events Conditions
12:54 AM 24.1 °F 15.2 °F 18.0 °F 77% 30.31 in 10.0 mi SW 8.1 mph - N/A   Clear
1:54 AM 23.0 °F 14.7 °F 17.1 °F 78% 30.31 in 10.0 mi SW 6.9 mph - N/A   Clear
2:54 AM 23.0 °F 13.9 °F 17.1 °F 78% 30.30 in 10.0 mi SW 8.1 mph - N/A   Clear
3:54 AM 23.0 °F 13.1 °F 17.1 °F 78% 30.30 in 10.0 mi SW 9.2 mph - N/A   Clear
4:54 AM 21.9 °F 11.7 °F 17.1 °F 82% 30.30 in 9.0 mi SW 9.2 mph - N/A   Clear
5:54 AM 21.0 °F 11.4 °F 17.1 °F 85% 30.29 in 9.0 mi SW 8.1 mph - N/A   Clear
6:54 AM 21.0 °F 10.6 °F 16.0 °F 81% 30.30 in 8.0 mi SSW 9.2 mph - N/A   Clear
7:54 AM 19.9 °F 10.1 °F 16.0 °F 85% 30.30 in 7.0 mi SW 8.1 mph - N/A   Clear
8:54 AM 21.9 °F 11.0 °F 17.1 °F 82% 30.31 in 7.0 mi SSW 10.4 mph - N/A   Clear
9:54 AM 25.0 °F 13.6 °F 19.0 °F 78% 30.31 in 8.0 mi SW 12.7 mph - N/A   Clear
10:54 AM 28.0 °F 17.5 °F 18.0 °F 66% 30.31 in 10.0 mi WSW 12.7 mph - N/A   Clear
11:54 AM 30.9 °F 21.7 °F 17.1 °F 57% 30.30 in - WSW 11.5 mph - N/A   Unknown
12:54 PM 33.1 °F 24.4 °F 17.1 °F 52% 30.27 in - SW 11.5 mph 19.6 mph N/A   Unknown
1:54 PM 33.1 °F 22.6 °F 18.0 °F 54% 30.24 in 10.0 mi WSW 16.1 mph - N/A   Clear
2:54 PM 34.0 °F 23.4 °F 19.0 °F 54% 30.21 in 10.0 mi SSW 17.3 mph - N/A   Clear
3:54 PM 34.0 °F 23.8 °F 18.0 °F 52% 30.20 in 10.0 mi SW 16.1 mph 23.0 mph N/A   Clear
4:54 PM 33.1 °F 22.6 °F 19.0 °F 56% 30.19 in 10.0 mi SSW 16.1 mph 20.7 mph N/A   Clear
5:54 PM 30.9 °F 20.7 °F 19.0 °F 61% 30.18 in 10.0 mi SSW 13.8 mph - N/A   Clear
6:54 PM 30.0 °F 21.1 °F 19.0 °F 64% 30.18 in 10.0 mi SSW 10.4 mph - N/A   Clear
7:54 PM 28.0 °F 20.0 °F 19.0 °F 69% 30.18 in 10.0 mi SSW 8.1 mph - N/A   Clear
8:54 PM 28.9 °F 19.8 °F 19.9 °F 69% 30.17 in 10.0 mi SSW 10.4 mph - N/A   Scattered Clouds
9:54 PM 27.0 °F 19.5 °F 19.9 °F 75% 30.17 in 10.0 mi SSW 6.9 mph - N/A   Clear
10:54 PM 26.1 °F 18.4 °F 19.0 °F 75% 30.16 in 10.0 mi SW 6.9 mph - N/A   Clear
11:54 PM 26.1 °F 19.4 °F 19.9 °F 78% 30.14 in 10.0 mi SSW 5.8 mph - N/A   Scattered Clouds